Regional Weather Roundup
Issued by NWS

Home | Current Version | Previous Version | Graphics & Text | Print | Product List | Glossary On
Versions: 1 2 3 4 5 6 7 8 9 10 11 12 13 14 15 16 17 18 19 20 21 22 23 24 25 26 27 28 29 30 31 32 33 34 35 36 37 38 39 40 41 42 43 44 45 46 47 48 49 50
000
ASUS45 KTFX 012310
RWRMT
MONTANA REGIONAL WEATHER ROUNDUP
NATIONAL WEATHER SERVICE GREAT FALLS MT
500 PM MDT SAT AUG 01 2015

NOTE: "FAIR" INDICATES FEW OR NO CLOUDS BELOW 12000 FEET WITH NO
SIGNIFICANT WEATHER AND/OR OBSTRUCTIONS TO VISIBILITY.

MTZ001>007-043-020000-
WEST OF THE DIVIDE

CITY           SKY/WX    TMP DP  RH WIND       PRES   REMARKS
KALISPELL      CLEAR    100  24   6 W13G18    29.87F HX  93
MISSOULA       SUNNY     97  28   8 NW23      29.93F HX  91
BUTTE          SUNNY     88  31  13 NW13G20   30.11F
MULLAN PASS    SUNNY     78  29  16 MISG      30.19F
DEER LODGE       N/A     90  36  14 SE5       30.06F
EUREKA           N/A     97  23   7 W5        29.87F HX  90
HAMILTON         N/A     95  32  11 W18       29.95F HX  90
LIBBY            N/A     99  27   8 NW7       29.88F HX  92
PLAINS           N/A     99  44  15 SW14      29.90F HX  95
RONAN            N/A     98  34  10 SW14      29.97F HX  92
THOMPSON FALLS   N/A     99  33  10 SW16      29.92F HX  93
$$

MTZ008-052>055-020000-
SOUTHWEST MONTANA

CITY           SKY/WX    TMP DP  RH WIND       PRES   REMARKS
BOZEMAN        SUNNY     93  32  11 MISG      30.02F
DILLON         SUNNY     86  44  23 W14       30.07F
W YELLOWSTONE  MOSUNNY   81  28  15 CALM      30.23F
THREE FORKS      N/A     95  20   6 W7        29.99F
TWIN BRIDGES     N/A     91  40  16 SE6       30.04F
$$

MTZ009-010-012-014-046-048-049-054-020000-
EAST SLOPES AND CENTRAL MONTANA

CITY           SKY/WX    TMP DP  RH WIND       PRES   REMARKS
CUT BANK       SUNNY     94  23   8 W18G26    29.92F
GREAT FALLS    SUNNY     97  18   6 W13       29.92F HX  90
MALMSTROM AFB  SUNNY     95  23   7 W14G21    29.91F
HELENA         SUNNY     97  33  10 NW20      29.95F HX  91
CONRAD           N/A     95  30  10 NW10      29.95F
$$

MTZ011-013-016-021-045-047-050-051-020000-
NORTH CENTRAL MONTANA

CITY           SKY/WX    TMP DP  RH WIND       PRES   REMARKS
HAVRE          SUNNY     97  29   9 W12       29.81F HX  91
LEWISTOWN      SUNNY     93  29  10 NW12G20   29.97F
CHINOOK          N/A     97  37  12 W5        29.81F HX  92
FORT BENTON      N/A     97  25   7 W9G18     29.85F HX  90
$$

MTZ017>020-022>027-061-062-020000-
NORTHEAST MONTANA

CITY           SKY/WX    TMP DP  RH WIND       PRES   REMARKS
GLASGOW        SUNNY     97  32  10 NW24G31   29.79F HX  91
JORDAN           N/A     98  30   9 W15G21    29.84F HX  92
SIDNEY         SUNNY    N/A N/A N/A W20G29    29.74S
WOLF POINT     SUNNY    100  34  10 W15       29.77F HX  94
MALTA            N/A     97  42  15 W12       29.79F HX  93
PLENTYWOOD       N/A     91  43  18 NW20G32   29.76R
POPLAR           N/A     95  37  13 NW13G22   29.77S HX  90
SCOBEY           N/A     88  54  31 NW15      29.83R
$$

MTZ028>42-056>058-020000-
SOUTHCENTRAL AND SOUTHEAST MONTANA

CITY           SKY/WX    TMP DP  RH WIND       PRES   REMARKS
BAKER          SUNNY     97  32  10 W18G30    29.86F HX  91
BILLINGS       MOSUNNY   95  28   9 W22       29.94F
LIVINGSTON     SUNNY     95  29   9 W20G26    30.02F
MILES CITY     SUNNY    100  30   8 NW23G32   29.83F HX  94
EKALAKA          N/A     94  31  10 W7        29.90F
FORSYTH          N/A     99  25   7 NW9G23    29.84F HX  92
LAUREL           N/A     98  34  10 W10       29.94F HX  92
ROUNDUP          N/A     96  33  11 W15       29.85F HX  90
$$

REGIONAL REPORTS...DAKOTAS

CITY           SKY/WX    TMP DP  RH WIND       PRES   REMARKS
WILLISTON      SUNNY    100  33   9 NW24G36   29.72F HX  94
MINOT          SUNNY     89  47  23 SW10      29.75F
DICKINSON      SUNNY     92  41  17 W16       29.80F
CROSBY         FAIR      91  46  21 S10       29.71F
BISMARCK       SUNNY     91  50  24 MISG      29.80F
GRAND FORKS    MOSUNNY   85  61  44 S10       29.74F
FARGO          SUNNY     87  61  41 SE10      29.76F
BUFFALO SD       N/A     96  29   9 W14G23    29.83F HX  90
RAPID CITY     SUNNY     92  47  21 S3        29.94F
$$

REGIONAL REPORTS...WYOMING/IDAHO/WASHINGTON

CITY           SKY/WX    TMP DP  RH WIND       PRES   REMARKS
GILLETTE       SUNNY     94  24   8 N10G20    30.00F
SHERIDAN       SUNNY     96  25   8 N12G21    29.98F HX  90
BUFFALO WY     SUNNY     92  29  10 N8        30.07F
CODY           SUNNY     88  37  16 NE9       30.08S
YELLOWSTONE LA   N/A     74  32  21 CALM      30.34F
IDAHO FALLS    SUNNY     92  31  11 NW3       30.08F
SALMON         SUNNY     93  36  13 NE5       29.95F
BOISE          SUNNY    102  36  10 N8        29.92F HX  96
SPOKANE        PTSUNNY   98  20   6 W17       29.90F HX  91
$$

REGIONAL REPORTS...ALBERTA

CITY           SKY/WX    TMP DP  RH WIND       PRES   REMARKS
EDMONTON       MOSUNNY   75  48  38 NW8G22    29.96F
CALGARY        PTSUNNY   79  54  41 NE17G23   29.98F
LETHBRIDGE     MOSUNNY   90  43  19 NE16      29.87S
MEDICINE HAT   MOSUNNY   91  46  21 NE14      29.84F
WATERTON GATE    N/A     90  28  11 W17G25      N/A
CARDSTON         N/A     90  30  12 NW12G23     N/A
MILK RIVER       N/A     91  28  10 W15G25      N/A
ONEFOUR          N/A     90  36  14 NW16G22     N/A
$$

REGIONAL REPORTS...SASKATCHEWAN

CITY           SKY/WX    TMP DP  RH WIND       PRES   REMARKS
SWIFT CURRENT  SUNNY     79  52  38 NE16G22   29.91R
REGINA         MOSUNNY   79  54  41 N23G31    29.83S
SASKATOON      PTSUNNY   68  57  68 NW8       29.89S
CYPRESS HILLS    N/A     77  46  33 NE7         N/A
VAL MARIE        N/A     84  50  30 NE20G25     N/A
ROCKGLEN         N/A     81  55  41 NW15G23     N/A
ASSINIBOIA       N/A     73  50  43 NW14G22     N/A
$$


USA.gov is the U.S. government's official web portal to all federal, state and local government web resources and services.